Location: Huppendorf
(49.9333°N, 11.1500°E)
Time: 16:46:03
(UTC+00:00)

Cosmos 1898 Rocket - Pass Details

Date: 27 February 2020
Orbit: 754 x 783 km, 74.0° (Epoch: 07 April)

Event Time Altitude Azimuth Distance (km) Brightness Sun altitude
Rises 17:15:26 0° 339° (NNW) 3,220 6.9 -4.3°
Reaches altitude 10° 17:17:56 10° 347° (NNW) 2,291 6.1 -4.7°
Maximum altitude 17:22:50 41° 58° (ENE) 1,084 3.9 -5.5°
Drops below altitude 10° 17:27:44 10° 129° (SE) 2,284 5.5 -6.3°
Sets 17:30:13 0° 136° (SE) 3,209 6.3 -6.7°
